Location: Wolf Lake
(46.8518°N, 80.6381°W)
Time: 11:21:05
(UTC-04:00)

ISS - Pass Details

Date: 21 March 2026
Orbit: 416 x 425 km, 51.6° (Epoch: 19 April)

Event Time Altitude Azimuth Distance (km) Brightness Sun altitude
Rises 22:42:13 0° 295° (WNW) 2,385 1.2 -30.1°
Reaches altitude 10° 22:44:21 10° 291° (WNW) 1,515 -0.1 -30.4°
Enters shadow 22:44:48 13° 289° (WNW) 1,337 -0.5 -30.5°
